• In Uzbekistan
  • List of Countries
  • For 7 days
  • Water Temperature
  • Satellite Maps
  • Weather Map
  • Weather Widgets
  • user-avatar
    Login

    Hourly Weather Tskhaltubo

    Today, 25 September, Monday

    Time Temperature Precipitation Wind Pressure Humidity
    00:00 +19°C° 0.1 mm 0 mps 748 mmHg 96%
    01:00 +21°C° 0 mm 1 mps 748 mmHg 95%
    02:00 +21°C° 0 mm 1 mps 748 mmHg 94%
    03:00 +21°C° 0 mm 1 mps 748 mmHg 95%
    04:00 +21°C° 0.1 mm 1 mps 747 mmHg 94%
    05:00 +21°C° 0.1 mm 1 mps 747 mmHg 93%
    06:00 +20°C° 0.1 mm 1 mps 747 mmHg 91%
    07:00 +22°C° 0.1 mm 1 mps 747 mmHg 86%
    08:00 +24°C° 0.1 mm 1 mps 747 mmHg 81%
    09:00 +25°C° 0.1 mm 1 mps 747 mmHg 75%
    10:00 +27°C° 0 mm 1 mps 747 mmHg 69%
    11:00 +28°C° 0 mm 1 mps 747 mmHg 62%
    12:00 +29°C° 0 mm 1 mps 746 mmHg 56%
    13:00 +29°C° 0.1 mm 1 mps 746 mmHg 57%
    14:00 +29°C° 0.1 mm 2 mps 746 mmHg 57%
    15:00 +29°C° 0.1 mm 2 mps 746 mmHg 58%
    16:00 +27°C° 0.2 mm 1 mps 746 mmHg 68%
    17:00 +25°C° 0.2 mm 1 mps 746 mmHg 79%
    18:00 +21°C° 0.2 mm 0 mps 746 mmHg 89%
    19:00 +22°C° 0.2 mm 1 mps 746 mmHg 89%
    20:00 +22°C° 0.2 mm 1 mps 746 mmHg 89%
    21:00 +21°C° 0.2 mm 1 mps 747 mmHg 89%
    22:00 +20°C° 0 mm 2 mps 747 mmHg 87%
    23:00 +20°C° 0 mm 2 mps 746 mmHg 85%

    Tomorrow, 26 September, Tuesday

    Time Temperature Precipitation Wind Pressure Humidity
    00:00 +20°C° 0 mm 2 mps 746 mmHg 83%
    01:00 +19°C° 0 mm 2 mps 746 mmHg 81%
    02:00 +19°C° 0 mm 2 mps 746 mmHg 79%
    03:00 +19°C° 0 mm 2 mps 746 mmHg 77%
    04:00 +19°C° 0 mm 2 mps 746 mmHg 75%
    05:00 +19°C° 0 mm 2 mps 745 mmHg 73%
    06:00 +19°C° 0 mm 2 mps 745 mmHg 72%
    07:00 +21°C° 0 mm 2 mps 745 mmHg 65%
    08:00 +24°C° 0 mm 2 mps 745 mmHg 59%
    09:00 +26°C° 0 mm 2 mps 745 mmHg 52%
    10:00 +28°C° 0 mm 2 mps 744 mmHg 49%
    11:00 +29°C° 0 mm 2 mps 744 mmHg 45%
    12:00 +30°C° 0 mm 2 mps 744 mmHg 41%
    13:00 +30°C° 0 mm 2 mps 744 mmHg 41%
    14:00 +30°C° 0 mm 2 mps 743 mmHg 41%
    15:00 +30°C° 0 mm 1 mps 743 mmHg 42%
    16:00 +28°C° 0 mm 1 mps 743 mmHg 50%
    17:00 +26°C° 0 mm 1 mps 743 mmHg 58%
    18:00 +23°C° 0 mm 1 mps 743 mmHg 67%
    19:00 +23°C° 0 mm 1 mps 743 mmHg 67%
    20:00 +23°C° 0 mm 1 mps 744 mmHg 68%
    21:00 +21°C° 0 mm 2 mps 744 mmHg 68%
    22:00 +21°C° 0 mm 2 mps 744 mmHg 69%
    23:00 +21°C° 0 mm 2 mps 744 mmHg 69%

    Day after tomorrow, 27 September, Wednesday

    Time Temperature Precipitation Wind Pressure Humidity
    00:00 +20°C° 0 mm 2 mps 744 mmHg 70%
    01:00 +20°C° 0 mm 2 mps 744 mmHg 70%
    02:00 +20°C° 0 mm 2 mps 744 mmHg 70%
    03:00 +19°C° 0 mm 2 mps 743 mmHg 70%
    04:00 +19°C° 0 mm 2 mps 743 mmHg 68%
    05:00 +19°C° 0 mm 2 mps 743 mmHg 67%
    06:00 +18°C° 0 mm 2 mps 743 mmHg 65%
    07:00 +20°C° 0 mm 2 mps 744 mmHg 61%
    08:00 +23°C° 0 mm 1 mps 744 mmHg 57%
    09:00 +24°C° 0 mm 1 mps 744 mmHg 53%
    10:00 +25°C° 0 mm 1 mps 744 mmHg 50%
    11:00 +26°C° 0 mm 1 mps 744 mmHg 48%
    12:00 +28°C° 0 mm 1 mps 744 mmHg 45%
    13:00 +27°C° 0 mm 2 mps 744 mmHg 49%
    14:00 +26°C° 0 mm 2 mps 744 mmHg 52%
    15:00 +26°C° 0 mm 3 mps 744 mmHg 56%
    16:00 +24°C° 0.3 mm 2 mps 744 mmHg 67%
    17:00 +22°C° 0.3 mm 1 mps 744 mmHg 77%
    18:00 +21°C° 0.3 mm 1 mps 745 mmHg 88%
    19:00 +20°C° 0.5 mm 1 mps 745 mmHg 89%
    20:00 +20°C° 0.5 mm 1 mps 745 mmHg 91%
    21:00 +19°C° 0.5 mm 1 mps 745 mmHg 92%
    22:00 +19°C° 2.3 mm 1 mps 745 mmHg 93%
    23:00 +19°C° 2.3 mm 1 mps 745 mmHg 94%

    28 September, Thursday

    Time Temperature Precipitation Wind Pressure Humidity
    00:00 +19°C° 2.3 mm 1 mps 745 mmHg 94%
    01:00 +19°C° 6 mm 1 mps 745 mmHg 95%
    02:00 +19°C° 6 mm 1 mps 745 mmHg 96%
    03:00 +18°C° 6 mm 1 mps 745 mmHg 96%
    04:00 +18°C° 5.6 mm 1 mps 745 mmHg 96%
    05:00 +17°C° 5.6 mm 2 mps 745 mmHg 96%
    06:00 +16°C° 5.6 mm 2 mps 745 mmHg 96%
    07:00 +16°C° 4.4 mm 2 mps 745 mmHg 95%
    08:00 +16°C° 4.4 mm 2 mps 745 mmHg 94%
    09:00 +16°C° 4.4 mm 2 mps 745 mmHg 93%
    10:00 +16°C° 4.4 mm 2 mps 745 mmHg 93%
    11:00 +16°C° 4.4 mm 2 mps 746 mmHg 94%
    12:00 +16°C° 4.4 mm 2 mps 746 mmHg 94%
    13:00 +16°C° 3.7 mm 2 mps 746 mmHg 94%
    14:00 +16°C° 3.7 mm 2 mps 746 mmHg 94%
    15:00 +16°C° 3.7 mm 2 mps 746 mmHg 95%
    16:00 +16°C° 1.1 mm 1 mps 746 mmHg 94%
    17:00 +16°C° 1.1 mm 1 mps 747 mmHg 94%
    18:00 +16°C° 1.1 mm 1 mps 747 mmHg 94%
    19:00 +16°C° 0.1 mm 1 mps 747 mmHg 93%
    20:00 +15°C° 0.1 mm 2 mps 748 mmHg 93%
    21:00 +15°C° 0.1 mm 2 mps 748 mmHg 92%
    22:00 +15°C° 0 mm 2 mps 748 mmHg 92%
    23:00 +15°C° 0 mm 2 mps 748 mmHg 92%

    29 September, Friday

    Time Temperature Precipitation Wind Pressure Humidity
    00:00 +15°C° 0 mm 2 mps 747 mmHg 91%
    01:00 +14°C° 0 mm 2 mps 747 mmHg 90%
    02:00 +14°C° 0 mm 2 mps 747 mmHg 89%
    03:00 +14°C° 0 mm 2 mps 747 mmHg 88%
    04:00 +14°C° 0 mm 2 mps 747 mmHg 87%
    05:00 +14°C° 0 mm 2 mps 747 mmHg 85%
    06:00 +14°C° 0 mm 2 mps 747 mmHg 83%
    07:00 +16°C° 0 mm 2 mps 746 mmHg 76%
    08:00 +18°C° 0 mm 2 mps 746 mmHg 69%
    09:00 +20°C° 0 mm 2 mps 746 mmHg 62%
    10:00 +21°C° 0 mm 2 mps 745 mmHg 58%
    11:00 +22°C° 0 mm 3 mps 745 mmHg 54%
    12:00 +25°C° 0 mm 3 mps 745 mmHg 50%
    13:00 +25°C° 0 mm 3 mps 744 mmHg 51%
    14:00 +25°C° 0 mm 3 mps 744 mmHg 51%
    15:00 +25°C° 0 mm 3 mps 743 mmHg 52%
    16:00 +23°C° 0 mm 2 mps 744 mmHg 58%
    17:00 +20°C° 0 mm 2 mps 744 mmHg 65%
    18:00 +18°C° 0 mm 2 mps 744 mmHg 71%
    19:00 +18°C° 0.1 mm 2 mps 744 mmHg 71%
    20:00 +17°C° 0.1 mm 2 mps 744 mmHg 71%
    21:00 +17°C° 0.1 mm 2 mps 744 mmHg 71%
    22:00 +17°C° 0.1 mm 2 mps 743 mmHg 71%
    23:00 +17°C° 0.1 mm 2 mps 743 mmHg 70%

    30 September, Saturday

    Time Temperature Precipitation Wind Pressure Humidity
    00:00 +17°C° 0.1 mm 2 mps 743 mmHg 69%
    01:00 +16°C° 0.1 mm 2 mps 743 mmHg 70%
    02:00 +16°C° 0.1 mm 2 mps 742 mmHg 71%
    03:00 +16°C° 0.1 mm 2 mps 742 mmHg 72%
    04:00 +16°C° 0.2 mm 2 mps 742 mmHg 74%
    05:00 +16°C° 0.2 mm 2 mps 742 mmHg 75%
    06:00 +16°C° 0.2 mm 2 mps 742 mmHg 76%
    07:00 +17°C° 0.1 mm 2 mps 741 mmHg 74%
    08:00 +19°C° 0.1 mm 2 mps 741 mmHg 71%
    09:00 +20°C° 0.1 mm 2 mps 741 mmHg 68%
    10:00 +21°C° 0.1 mm 2 mps 741 mmHg 66%
    11:00 +23°C° 0.1 mm 2 mps 741 mmHg 64%
    12:00 +23°C° 0.1 mm 2 mps 741 mmHg 61%
    13:00 +23°C° 0.1 mm 2 mps 741 mmHg 63%
    14:00 +23°C° 0.1 mm 2 mps 741 mmHg 65%
    15:00 +23°C° 0.1 mm 1 mps 741 mmHg 66%
    16:00 +21°C° 0 mm 1 mps 741 mmHg 72%
    17:00 +20°C° 0 mm 1 mps 741 mmHg 78%
    18:00 +19°C° 0 mm 1 mps 741 mmHg 84%
    19:00 +18°C° 0.1 mm 1 mps 742 mmHg 83%
    20:00 +18°C° 0.1 mm 1 mps 742 mmHg 82%
    21:00 +18°C° 0.1 mm 1 mps 742 mmHg 82%
    22:00 +18°C° 0.1 mm 1 mps 742 mmHg 81%
    23:00 +18°C° 0.1 mm 1 mps 742 mmHg 80%
    Show more